Date String (YYYY-MM-DD hh:mm:ss) UTC,Instrument flags,Ambient pressure (hPa),Sample flow (lpm),Bypass flow (lpm),Sample temperature (°C),Ambient temperature (°C),ASC tube jacket temperature (°C),LED temperature (°C),Box temperature (°C),Sample RH (%),Span deviation,Mass concentration (μg/m³),Mass concentration (μg/m³),Mass concentration (μg/m³)
DateTimeUTC,F1_M11,P_M11,Q1_M11,Q2_M11,T1_M11,T2_M11,T3_M11,T4_M11,T5_M11,U1_M11,ZSPAN_M11,X2_M11,X0_M11,X1_M11
2022-05-29 16:00:00,,0811.6,5.00,0.00,29.0,27.9,00.0,37.9,30.8,17.5,0000.0,0003.98,0011.17,0002.20
2022-05-29 16:01:00,,0811.6,5.00,0.00,29.0,27.9,00.0,37.9,30.7,17.0,0000.0,0004.04,0011.55,0002.25
2022-05-29 16:02:00,,0811.6,5.00,0.00,29.0,27.9,00.0,37.9,30.7,17.6,0000.0,0004.12,0013.06,0002.29
2022-05-29 16:03:00,,0811.5,5.01,0.00,28.9,27.9,00.0,37.9,30.7,17.5,0000.0,0004.15,0013.32,0002.31
2022-05-29 16:04:00,,0811.5,5.00,0.00,29.0,28.0,00.0,37.9,30.8,17.8,0000.0,0004.20,0013.31,0002.34
2022-05-29 16:05:00,,0811.5,5.00,0.00,29.0,28.0,00.0,37.9,30.8,17.6,0000.0,0004.21,0013.16,0002.37
2022-05-29 16:06:00,,0811.5,4.98,0.00,29.0,28.0,00.0,37.9,30.8,18.0,0000.0,0004.23,0013.97,0002.39
2022-05-29 16:07:00,,0811.5,5.00,0.00,29.0,28.0,00.0,37.9,30.8,18.6,0000.0,0004.27,0014.78,0002.39
2022-05-29 16:08:00,,0811.5,5.00,0.00,29.0,28.0,00.0,37.9,30.8,17.9,0000.0,0004.29,0014.59,0002.40
2022-05-29 16:09:00,,0811.5,5.00,0.00,29.0,28.1,00.0,37.9,30.8,17.4,0000.0,0004.26,0013.56,0002.41
2022-05-29 16:10:00,,0811.5,5.00,0.00,29.0,28.1,00.0,37.9,30.8,17.4,0000.0,0004.30,0013.80,0002.42
2022-05-29 16:11:00,,0811.5,5.00,0.00,29.0,28.1,00.0,38.0,30.8,17.0,0000.0,0004.32,0015.16,0002.42
2022-05-29 16:12:00,,0811.5,4.99,0.00,29.0,28.1,00.0,38.0,30.8,17.4,0000.0,0004.36,0015.50,0002.42
2022-05-29 16:13:00,,0811.5,4.99,0.00,29.0,28.1,00.0,38.0,30.9,18.3,0000.0,0004.41,0014.48,0002.42
2022-05-29 16:14:00,,0811.5,5.01,0.00,29.1,28.1,00.0,38.0,30.9,17.9,0000.0,0004.41,0014.45,0002.42
2022-05-29 16:15:00,,0811.5,5.00,0.00,29.1,28.1,00.0,38.0,30.9,17.6,0000.0,0004.35,0014.06,0002.42
2022-05-29 16:16:00,,0811.4,5.00,0.00,29.1,28.1,00.0,38.0,30.9,17.8,0000.0,0004.44,0014.24,0002.44
2022-05-29 16:17:00,,0811.4,5.01,0.00,29.1,28.1,00.0,38.0,30.9,17.3,0000.0,0004.42,0013.38,0002.45
2022-05-29 16:18:00,,0811.4,4.99,0.00,29.1,28.1,00.0,38.0,30.9,17.0,0000.0,0004.40,0012.64,0002.46
2022-05-29 16:19:00,,0811.4,4.99,0.00,29.1,28.1,00.0,38.0,30.9,17.9,0000.0,0004.41,0013.28,0002.46
2022-05-29 16:20:00,,0811.4,5.00,0.00,29.1,28.2,00.0,38.0,30.9,18.3,0000.0,0004.44,0014.60,0002.46
2022-05-29 16:21:00,,0811.4,5.00,0.00,29.1,28.2,00.0,38.0,30.9,17.4,0000.0,0004.44,0015.25,0002.47
2022-05-29 16:22:00,,0811.4,5.01,0.00,29.1,28.2,00.0,38.0,31.0,17.6,0000.0,0004.44,0013.80,0002.46
2022-05-29 16:23:00,,0811.4,4.99,0.00,29.1,28.2,00.0,38.0,31.0,17.4,0000.0,0004.41,0013.23,0002.47
2022-05-29 16:24:00,,0811.4,5.00,0.00,29.1,28.2,00.0,38.0,31.0,17.7,0000.0,0004.37,0012.77,0002.48
2022-05-29 16:25:00,,0811.4,5.02,0.00,29.1,28.2,00.0,38.1,31.0,18.1,0000.0,0004.35,0014.28,0002.48
2022-05-29 16:26:00,,0811.4,4.99,0.00,29.2,28.2,00.0,38.1,31.0,18.3,0000.0,0004.37,0014.88,0002.49
2022-05-29 16:27:00,,0811.4,5.00,0.00,29.2,28.2,00.0,38.1,31.0,17.8,0000.0,0004.31,0014.96,0002.49
2022-05-29 16:28:00,,0811.4,5.00,0.00,29.2,28.2,00.0,38.1,31.0,17.5,0000.0,0004.35,0015.52,0002.51
2022-05-29 16:29:00,,0811.4,4.99,0.00,29.2,28.3,00.0,38.1,31.0,18.1,0000.0,0004.43,0015.74,0002.50
2022-05-29 16:30:00,,0811.4,5.00,0.00,29.2,28.3,00.0,38.1,31.1,18.0,0000.0,0004.43,0015.11,0002.51
2022-05-29 16:31:00,,0811.4,5.00,0.00,29.2,28.3,00.0,38.1,31.1,17.5,0000.0,0004.45,0014.31,0002.53
2022-05-29 16:32:00,,0811.4,5.02,0.00,29.2,28.3,00.0,38.1,31.1,18.5,0000.0,0004.47,0013.25,0002.55
2022-05-29 16:33:00,,0811.4,5.00,0.00,29.2,28.3,00.0,38.1,31.1,17.9,0000.0,0004.43,0013.46,0002.57
2022-05-29 16:34:00,,0811.4,5.01,0.00,29.2,28.3,00.0,38.1,31.1,17.9,0000.0,0004.39,0013.88,0002.58
2022-05-29 16:35:00,,0811.4,4.99,0.00,29.3,28.3,00.0,38.1,31.1,18.2,0000.0,0004.40,0014.29,0002.60
2022-05-29 16:36:00,,0811.4,5.00,0.00,29.3,28.4,00.0,38.1,31.1,18.3,0000.0,0004.43,0013.52,0002.62
2022-05-29 16:37:00,,0811.4,5.01,0.00,29.3,28.4,00.0,38.2,31.1,17.4,0000.0,0004.44,0013.77,0002.64
2022-05-29 16:38:00,,0811.4,4.98,0.00,29.3,28.4,00.0,38.2,31.1,17.1,0000.0,0004.50,0013.73,0002.65
2022-05-29 16:39:00,,0811.4,5.00,0.00,29.3,28.4,00.0,38.2,31.1,17.5,0000.0,0004.47,0013.34,0002.63
2022-05-29 16:40:00,,0811.4,5.01,0.00,29.3,28.4,00.0,38.2,31.1,17.2,0000.0,0004.42,0013.97,0002.65
2022-05-29 16:41:00,,0811.4,4.99,0.00,29.3,28.4,00.0,38.2,31.1,16.9,0000.0,0004.45,0013.98,0002.66
2022-05-29 16:42:00,,0811.3,4.99,0.00,29.3,28.4,00.0,38.2,31.1,16.9,0000.0,0004.48,0013.95,0002.67
2022-05-29 16:43:00,,0811.3,5.01,0.00,29.3,28.4,00.0,38.2,31.1,17.3,0000.0,0004.47,0013.97,0002.66
2022-05-29 16:44:00,,0811.3,5.00,0.00,29.3,28.4,00.0,38.2,31.2,17.5,0000.0,0004.49,0013.95,0002.66
2022-05-29 16:45:00,,0811.3,5.00,0.00,29.3,28.4,00.0,38.2,31.2,17.0,0000.0,0004.53,0013.72,0002.66
2022-05-29 16:46:00,,0811.3,5.00,0.00,29.3,28.4,00.0,38.2,31.1,16.9,0000.0,0004.50,0013.39,0002.68
2022-05-29 16:47:00,,0811.3,5.01,0.00,29.3,28.4,00.0,38.2,31.1,16.9,0000.0,0004.49,0012.59,0002.69
2022-05-29 16:48:00,,0811.3,4.99,0.00,29.3,28.4,00.0,38.2,31.1,17.1,0000.0,0004.48,0011.63,0002.68
2022-05-29 16:49:00,,0811.2,4.99,0.00,29.3,28.4,00.0,38.2,31.1,17.4,0000.0,0004.49,0011.56,0002.68
2022-05-29 16:50:00,,0811.2,5.00,0.00,29.3,28.4,00.0,38.3,31.1,17.6,0000.0,0004.56,0011.67,0002.70
2022-05-29 16:51:00,,0811.2,5.01,0.00,29.3,28.4,00.0,38.3,31.1,17.6,0000.0,0004.58,0010.98,0002.73
2022-05-29 16:52:00,,0811.1,4.99,0.00,29.3,28.4,00.0,38.3,31.2,17.3,0000.0,0004.57,0011.76,0002.74
2022-05-29 16:53:00,,0811.1,5.00,0.00,29.4,28.4,00.0,38.3,31.2,16.9,0000.0,0004.54,0012.51,0002.75
2022-05-29 16:54:00,,0811.1,5.01,0.00,29.4,28.4,00.0,38.3,31.2,16.7,0000.0,0004.50,0012.40,0002.76
2022-05-29 16:55:00,,0811.1,5.00,0.00,29.4,28.4,00.0,38.3,31.2,16.8,0000.0,0004.50,0012.92,0002.76
2022-05-29 16:56:00,,0811.1,5.00,0.00,29.4,28.4,00.0,38.3,31.2,17.1,0000.0,0004.46,0013.34,0002.77
2022-05-29 16:57:00,,0811.1,5.00,0.00,29.4,28.4,00.0,38.3,31.2,17.2,0000.0,0004.48,0014.63,0002.76
2022-05-29 16:58:00,,0811.1,4.99,0.00,29.4,28.4,00.0,38.3,31.2,16.7,0000.0,0004.55,0016.22,0002.75
2022-05-29 16:59:00,,0811.2,5.00,0.00,29.4,28.5,00.0,38.3,31.2,17.0,0000.0,0004.58,0017.27,0002.77
